Location: Goodfare
(55.2420°N, 119.7689°W)
Time: 03:48:14
(UTC+00:00)

ISS - Pass Details

Date: 07 December 2021
Orbit: 413 x 423 km, 51.6° (Epoch: 18 January)

Event Time Altitude Azimuth Distance (km) Brightness Sun altitude
Rises 00:35:02 0° 274° (W) 2,387 1.2 -8.4°
Reaches altitude 10° 00:37:20 10° 262° (W) 1,518 0.4 -8.7°
Maximum altitude 00:40:15 27° 203° (SSW) 862 -1.5 -9.0°
Drops below altitude 10° 00:43:09 10° 144° (SE) 1,508 -1.0 -9.4°
Enters shadow 00:46:54 -5° 128° (SE) 2,952 0.3 -9.9°
